Weather History for Kendall, FL

Change the Weather History Date:

Wednesday, May 15, 2013

  Actual Average Record
Temperature  
Mean Temperature 74 °F -  
Max Temperature 84 °F 87 °F 93 °F (1999)
Min Temperature 66 °F 65 °F 62 °F (1992)
Cooling Degree Days 9    
Growing Degree Days 24 (Base 50)    
Moisture  
Dew Point 59 °F    
Average Humidity 59    
Maximum Humidity 81    
Minimum Humidity 41    
Precipitation  
Precipitation 0.00 in - - ()
Sea Level Pressure  
Sea Level Pressure 30.14 in    
Wind  
Wind Speed 8 mph (ENE)    
Max Wind Speed 18 mph    
Max Gust Speed 25 mph    
Visibility 10 miles    
Events      
Averages and records for this station are not official NWS values.
T = Trace of Precipitation, MM = Missing Value Source: NWS Daily Summary

Daily Weather History Graph

Daily Weather History Graph

Search for Another Location

Airport:

Trip Planner

Search our weather history database for the weather conditions in past years. The results will help you decide how hot, cold, wet, or windy it might be!

Date:

Astronomy

May. 15, 2013 Rise Set
Actual Time 6:36 AM EDT 8:00 PM EDT
Civil Twilight 6:11 AM EDT 8:25 PM EDT
Nautical Twilight 5:41 AM EDT 8:54 PM EDT
Astronomical Twilight 5:10 AM EDT 9:25 PM EDT
Moon 11:05 AM EDT (5/15) No Moon Set
Length of Visible Light 14h 13m
Length of Day
13h 24m
Waxing Crescent, 26% of the Moon is Illuminated
May 15
Waxing Crescent
May 18
First Quarter
May 25
Full
May 31
Last Quarter
Jun 8
New

Hourly Weather History & Observations

Time (EDT) Temp. Heat Index Dew Point Humidity Pressure Visibility Wind Dir Wind Speed Gust Speed Precip Events Conditions
12:53 AM 71.1 °F - 57.0 °F 61% 30.16 in 10.0 mi NNE 3.5 mph - N/A   Clear
1:53 AM 66.0 °F - 57.0 °F 73% 30.14 in 10.0 mi NNE 3.5 mph - N/A   Clear
2:53 AM 68.0 °F - 57.9 °F 70% 30.14 in 10.0 mi NNE 4.6 mph - N/A   Clear
3:53 AM 68.0 °F - 59.0 °F 73% 30.13 in 10.0 mi NNE 5.8 mph - N/A   Clear
4:53 AM 68.0 °F - 59.0 °F 73% 30.13 in 10.0 mi North 4.6 mph - N/A   Partly Cloudy
5:53 AM 69.1 °F - 61.0 °F 75% 30.14 in 10.0 mi NNE 5.8 mph - N/A   Overcast
6:53 AM 66.9 °F - 61.0 °F 81% 30.14 in 10.0 mi Calm Calm - N/A   Clear
7:53 AM 73.0 °F - 62.1 °F 68% 30.15 in 10.0 mi NE 4.6 mph - N/A   Clear
8:53 AM 78.1 °F - 59.0 °F 52% 30.17 in 10.0 mi East 11.5 mph - N/A   Clear
9:53 AM 80.1 °F 80.7 °F 59.0 °F 48% 30.18 in 10.0 mi ENE 15.0 mph - N/A   Partly Cloudy
10:53 AM 80.1 °F 80.7 °F 59.0 °F 48% 30.18 in 10.0 mi ESE 13.8 mph - 0.00 in   Partly Cloudy
11:53 AM 81.0 °F 81.6 °F 60.1 °F 49% 30.18 in 10.0 mi ENE 10.4 mph - N/A   Mostly Cloudy
12:53 PM 82.0 °F 82.4 °F 60.1 °F 47% 30.17 in 10.0 mi ENE 18.4 mph 25.3 mph N/A   Mostly Cloudy
1:53 PM 82.0 °F 82.0 °F 57.9 °F 44% 30.16 in 10.0 mi East 17.3 mph 25.3 mph N/A   Mostly Cloudy
2:53 PM 82.9 °F 82.4 °F 57.0 °F 41% 30.14 in 10.0 mi East 16.1 mph 24.2 mph N/A   Partly Cloudy
3:53 PM 82.9 °F 82.6 °F 57.9 °F 42% 30.12 in 10.0 mi East 17.3 mph 24.2 mph N/A   Scattered Clouds
4:53 PM 81.0 °F 81.6 °F 60.1 °F 49% 30.10 in 10.0 mi East 15.0 mph - N/A   Scattered Clouds
5:53 PM 81.0 °F 81.6 °F 60.1 °F 49% 30.11 in 10.0 mi East 15.0 mph 21.9 mph N/A   Partly Cloudy
6:53 PM 78.1 °F - 62.1 °F 58% 30.10 in 10.0 mi East 16.1 mph - N/A   Mostly Cloudy
7:53 PM 77.0 °F - 61.0 °F 58% 30.10 in 10.0 mi East 15.0 mph 21.9 mph N/A   Overcast
8:53 PM 75.9 °F - 60.1 °F 58% 30.11 in 10.0 mi East 13.8 mph - N/A   Mostly Cloudy
9:53 PM 73.9 °F - 60.1 °F 62% 30.12 in 10.0 mi East 10.4 mph - N/A   Clear
10:53 PM 72.0 °F - 59.0 °F 64% 30.13 in 10.0 mi East 9.2 mph - N/A   Clear
11:53 PM 71.1 °F - 59.0 °F 66% 30.12 in 10.0 mi East 9.2 mph - N/A   Clear